| time (UTC) | temp F | wind direction | speed MPH | gust MPH | rain 1hr in | rain 24hr in | rain mn in | humidity % | barometer mb |
| 20260502220904 | 63 | 95 | 1.0 | 3.0 | 0.00 | 0.22 | 0.22 | 74 | 1011.2 |
| 20260502220004 | 64 | 124 | 2.0 | 7.0 | 0.00 | 0.22 | 0.22 | 73 | 1011.2 |
| 20260502215404 | 64 | 110 | 2.0 | 7.0 | 0.00 | 0.22 | 0.22 | 71 | 1011.1 |
| 20260502214511 | 65 | 96 | 2.0 | 6.0 | 0.00 | 0.22 | 0.22 | 70 | 1011.1 |
| 20260502213625 | 66 | 115 | 1.0 | 6.0 | 0.00 | 0.22 | 0.22 | 70 | 1011.0 |
| 20260502212704 | 65 | 288 | 1.0 | 4.0 | 0.00 | 0.22 | 0.22 | 69 | 1011.0 |
| 20260502211828 | 64 | 8 | 1.0 | 4.0 | 0.00 | 0.22 | 0.22 | 71 | 1011.0 |
| 20260502210904 | 65 | 36 | 0.0 | 4.0 | 0.00 | 0.22 | 0.22 | 74 | 1010.9 |
| 20260502210004 | 65 | 91 | 1.0 | 3.0 | 0.00 | 0.22 | 0.22 | 69 | 1010.9 |
| 20260502205405 | 65 | 110 | 1.0 | 3.0 | 0.00 | 0.22 | 0.22 | 74 | 1011.0 |
| 20260502204528 | 64 | 113 | 1.0 | 5.0 | 0.00 | 0.22 | 0.22 | 72 | 1011.1 |
| 20260502203626 | 64 | 97 | 1.0 | 4.0 | 0.00 | 0.22 | 0.22 | 71 | 1011.1 |
| 20260502202703 | 66 | 19 | 1.0 | 4.0 | 0.00 | 0.22 | 0.22 | 70 | 1011.0 |
| 20260502201816 | 66 | 356 | 1.0 | 5.0 | 0.00 | 0.22 | 0.22 | 75 | 1011.0 |
| 20260502200925 | 65 | 76 | 1.0 | 5.0 | 0.00 | 0.22 | 0.22 | 74 | 1011.1 |
| 20260502200026 | 64 | 77 | 2.0 | 5.0 | 0.00 | 0.22 | 0.22 | 73 | 1011.2 |
| 20260502195426 | 64 | 302 | 1.0 | 4.0 | 0.00 | 0.22 | 0.22 | 75 | 1011.4 |
| 20260502194504 | 64 | 58 | 2.0 | 7.0 | 0.00 | 0.22 | 0.22 | 73 | 1011.5 |
| 20260502193603 | 64 | 12 | 2.0 | 9.0 | 0.00 | 0.22 | 0.22 | 77 | 1011.7 |
| 20260502192726 | 63 | 12 | 2.0 | 5.0 | 0.00 | 0.22 | 0.22 | 78 | 1011.8 |
| 20260502191804 | 62 | 323 | 2.0 | 7.0 | 0.00 | 0.22 | 0.22 | 80 | 1011.8 |
| 20260502190904 | 62 | 313 | 1.0 | 5.0 | 0.00 | 0.22 | 0.22 | 79 | 1011.9 |
| 20260502190025 | 60 | 65 | 1.0 | 4.0 | 0.00 | 0.22 | 0.22 | 82 | 1012.1 |
| 20260502185405 | 60 | 78 | 1.0 | 5.0 | 0.00 | 0.22 | 0.22 | 82 | 1012.1 |
| 20260502184504 | 60 | 62 | 1.0 | 6.0 | 0.00 | 0.22 | 0.22 | 81 | 1012.1 |
| 20260502183605 | 60 | 341 | 1.0 | 4.0 | 0.00 | 0.22 | 0.22 | 83 | 1012.2 |
| 20260502182704 | 60 | 52 | 1.0 | 5.0 | 0.00 | 0.22 | 0.22 | 83 | 1012.2 |
| 20260502181804 | 60 | 90 | 1.0 | 6.0 | 0.00 | 0.22 | 0.22 | 84 | 1012.3 |
| 20260502180904 | 59 | 71 | 2.0 | 6.0 | 0.00 | 0.22 | 0.22 | 84 | 1012.2 |
| 20260502163605 | 56 | 335 | 2.0 | 10.0 | 0.01 | 0.22 | 0.22 | 92 | 1012.6 |
| 20260502162707 | 56 | 294 | 1.0 | 5.0 | 0.01 | 0.22 | 0.22 | 93 | 1012.4 |
| 20260502161804 | 55 | 322 | 0.0 | 2.0 | 0.01 | 0.22 | 0.22 | 94 | 1012.6 |
| 20260502160925 | 55 | 351 | 1.0 | 6.0 | 0.01 | 0.22 | 0.22 | 93 | 1012.7 |
| 20260502151803 | 60 | 325 | 0.0 | 2.0 | 0.01 | 0.21 | 0.21 | 93 | 1012.0 |
| 20260502150905 | 60 | 80 | 0.0 | 1.0 | 0.01 | 0.21 | 0.21 | 93 | 1012.1 |
| 20260502123604 | 58 | 282 | 0.0 | 2.0 | 0.02 | 0.20 | 0.20 | 96 | 1011.8 |
| 20260502122704 | 57 | 275 | 0.0 | 2.0 | 0.02 | 0.20 | 0.20 | 96 | 1012.3 |
| 20260502121804 | 57 | 281 | 0.0 | 2.0 | 0.01 | 0.19 | 0.19 | 96 | 1012.3 |
| 20260502120904 | 57 | 290 | 2.0 | 4.0 | 0.02 | 0.19 | 0.19 | 97 | 1012.3 |
| 20260502115425 | 56 | 287 | 1.0 | 3.0 | 0.03 | 0.18 | 0.18 | 96 | 1011.8 |
| 20260502113605 | 56 | 285 | 0.0 | 1.0 | 0.03 | 0.18 | 0.18 | 96 | 1011.0 |
| 20260502112704 | 56 | 277 | 0.0 | 1.0 | 0.03 | 0.18 | 0.18 | 96 | 1010.7 |
| 20260502111804 | 56 | 0 | 0.0 | 0.0 | 0.03 | 0.18 | 0.18 | 96 | 1010.7 |
| 20260502110910 | 56 | 271 | 0.0 | 1.0 | 0.02 | 0.17 | 0.17 | 96 | 1010.7 |
| 20260502110004 | 56 | 259 | 0.0 | 1.0 | 0.01 | 0.16 | 0.16 | 96 | 1010.8 |
| 20260502105403 | 56 | 0 | 0.0 | 0.0 | 0.01 | 0.15 | 0.15 | 96 | 1010.4 |
| 20260502104505 | 56 | 0 | 0.0 | 0.0 | 0.02 | 0.15 | 0.15 | 96 | 1010.4 |
| 20260502103603 | 56 | 0 | 0.0 | 0.0 | 0.03 | 0.15 | 0.15 | 96 | 1010.4 |
| 20260502102703 | 56 | 0 | 0.0 | 0.0 | 0.04 | 0.15 | 0.15 | 95 | 1010.2 |
| 20260502101804 | 56 | 0 | 0.0 | 0.0 | 0.05 | 0.15 | 0.15 | 95 | 1010.3 |
| 20260502100905 | 56 | 0 | 0.0 | 0.0 | 0.07 | 0.15 | 0.15 | 95 | 1010.2 |
| 20260502090925 | 57 | 0 | 0.0 | 0.0 | 0.06 | 0.08 | 0.09 | 95 | 1011.4 |
| 20260502070903 | 58 | 94 | 0.0 | 1.0 | 0.00 | 0.00 | 0.00 | 91 | 1011.2 |
| 20260502070003 | 57 | 126 | 0.0 | 1.0 | 0.00 | 0.00 | 0.00 | 91 | 1011.3 |
| 20260502065403 | 57 | 126 | 0.0 | 1.0 | 0.00 | 0.00 | 0.00 | 91 | 1011.2 |
| 20260502064504 | 57 | 125 | 0.0 | 1.0 | 0.00 | 0.00 | 0.00 | 92 | 1011.1 |
| 20260502063603 | 57 | 124 | 0.0 | 1.0 | 0.00 | 0.00 | 0.00 | 92 | 1011.1 |
| 20260502062703 | 57 | 124 | 0.0 | 1.0 | 0.00 | 0.00 | 0.00 | 92 | 1011.0 |
| 20260502061803 | 57 | 0 | 0.0 | 0.0 | 0.00 | 0.00 | 0.00 | 93 | 1011.1 |
| 20260502060904 | 57 | 0 | 0.0 | 0.0 | 0.00 | 0.00 | 0.00 | 93 | 1011.2 |
| 20260502060004 | 56 | 0 | 0.0 | 0.0 | 0.00 | 0.00 | 0.00 | 93 | 1011.3 |
| 20260502055403 | 56 | 0 | 0.0 | 0.0 | 0.00 | 0.00 | 0.00 | 93 | 1011.4 |
| 20260502054503 | 56 | 0 | 0.0 | 0.0 | 0.00 | 0.00 | 0.00 | 93 | 1011.6 |
| 20260502053603 | 56 | 0 | 0.0 | 0.0 | 0.00 | 0.00 | 0.00 | 93 | 1011.7 |
| 20260502052703 | 56 | 0 | 0.0 | 0.0 | 0.00 | 0.00 | 0.00 | 93 | 1011.8 |
| 20260502051803 | 56 | 0 | 0.0 | 0.0 | 0.00 | 0.00 | 0.00 | 93 | 1012.0 |
| 20260502050903 | 57 | 0 | 0.0 | 0.0 | 0.00 | 0.00 | 0.00 | 93 | 1011.9 |
| 20260502050024 | 56 | 0 | 0.0 | 0.0 | 0.00 | 0.00 | 0.00 | 93 | 1011.9 |
| 20260502045405 | 56 | 0 | 0.0 | 0.0 | 0.00 | 0.00 | 0.00 | 93 | 1011.9 |
| 20260502044525 | 56 | 0 | 0.0 | 0.0 | 0.00 | 0.00 | 0.00 | 92 | 1011.9 |
| 20260502043603 | 56 | 0 | 0.0 | 0.0 | 0.00 | 0.00 | 0.00 | 92 | 1011.9 |
| 20260502042703 | 57 | 0 | 0.0 | 0.0 | 0.00 | 0.00 | 0.00 | 92 | 1011.9 |
| 20260502041809 | 57 | 0 | 0.0 | 0.0 | 0.00 | 0.00 | 0.00 | 92 | 1012.1 |
| 20260502040903 | 57 | 0 | 0.0 | 0.0 | 0.00 | 0.00 | 0.00 | 92 | 1012.1 |
| 20260502040003 | 57 | 0 | 0.0 | 0.0 | 0.00 | 0.00 | 0.00 | 92 | 1012.3 |
| 20260502035421 | 57 | 0 | 0.0 | 0.0 | 0.00 | 0.00 | 0.00 | 92 | 1012.3 |
| 20260502034503 | 57 | 0 | 0.0 | 0.0 | 0.00 | 0.00 | 0.00 | 92 | 1012.4 |
| 20260502033625 | 57 | 0 | 0.0 | 0.0 | 0.00 | 0.00 | 0.00 | 92 | 1012.4 |
| 20260502032703 | 57 | 0 | 0.0 | 0.0 | 0.00 | 0.00 | 0.00 | 92 | 1012.3 |
| 20260502031803 | 57 | 0 | 0.0 | 0.0 | 0.00 | 0.00 | 0.00 | 91 | 1012.3 |
| 20260502030903 | 57 | 0 | 0.0 | 0.0 | 0.00 | 0.00 | 0.00 | 91 | 1012.2 |
| 20260502030004 | 57 | 0 | 0.0 | 0.0 | 0.00 | 0.00 | 0.00 | 91 | 1012.2 |
| 20260502025403 | 57 | 0 | 0.0 | 0.0 | 0.00 | 0.00 | 0.00 | 90 | 1012.1 |
| 20260502024504 | 57 | 0 | 0.0 | 0.0 | 0.00 | 0.00 | 0.00 | 91 | 1012.2 |
| 20260502023606 | 57 | 0 | 0.0 | 0.0 | 0.00 | 0.00 | 0.00 | 91 | 1012.2 |
| 20260502022726 | 58 | 0 | 0.0 | 0.0 | 0.00 | 0.00 | 0.00 | 91 | 1012.3 |
| 20260502021806 | 58 | 0 | 0.0 | 0.0 | 0.00 | 0.00 | 0.00 | 90 | 1012.4 |
| 20260502020905 | 58 | 0 | 0.0 | 0.0 | 0.00 | 0.00 | 0.00 | 90 | 1012.2 |
| 20260502020036 | 58 | 0 | 0.0 | 0.0 | 0.00 | 0.00 | 0.00 | 90 | 1012.2 |
| 20260502015418 | 58 | 0 | 0.0 | 0.0 | 0.00 | 0.00 | 0.00 | 90 | 1012.0 |
| 20260502014526 | 58 | 0 | 0.0 | 0.0 | 0.00 | 0.00 | 0.00 | 89 | 1012.2 |
| 20260502013605 | 58 | 0 | 0.0 | 0.0 | 0.00 | 0.00 | 0.00 | 88 | 1012.2 |
| 20260502012705 | 58 | 0 | 0.0 | 0.0 | 0.00 | 0.00 | 0.00 | 89 | 1012.2 |
| 20260502011804 | 59 | 0 | 0.0 | 0.0 | 0.00 | 0.00 | 0.00 | 89 | 1012.1 |
| 20260502010904 | 59 | 0 | 0.0 | 0.0 | 0.00 | 0.00 | 0.00 | 88 | 1011.9 |
| 20260502010004 | 59 | 0 | 0.0 | 0.0 | 0.00 | 0.00 | 0.00 | 87 | 1011.8 |
| 20260502005406 | 59 | 0 | 0.0 | 0.0 | 0.00 | 0.00 | 0.00 | 87 | 1011.7 |
| 20260502004504 | 60 | 0 | 0.0 | 0.0 | 0.00 | 0.00 | 0.00 | 86 | 1011.6 |
| 20260502003605 | 60 | 0 | 0.0 | 0.0 | 0.00 | 0.00 | 0.00 | 86 | 1011.6 |
| 20260502002733 | 60 | 0 | 0.0 | 0.0 | 0.00 | 0.00 | 0.00 | 85 | 1011.4 |
| 20260502001805 | 61 | 0 | 0.0 | 0.0 | 0.00 | 0.00 | 0.00 | 84 | 1011.4 |
| 20260502000904 | 62 | 0 | 0.0 | 0.0 | 0.00 | 0.00 | 0.00 | 83 | 1011.4 |
| 20260502000006 | 62 | 0 | 0.0 | 0.0 | 0.00 | 0.00 | 0.00 | 82 | 1011.6 |
| 20260501235406 | 62 | 0 | 0.0 | 0.0 | 0.00 | 0.00 | 0.00 | 82 | 1011.3 |
| 20260501234505 | 63 | 0 | 0.0 | 0.0 | 0.00 | 0.00 | 0.00 | 80 | 1011.0 |
| 20260501233616 | 64 | 0 | 0.0 | 0.0 | 0.00 | 0.00 | 0.00 | 79 | 1011.1 |
| 20260501232705 | 65 | 0 | 0.0 | 0.0 | 0.00 | 0.00 | 0.00 | 78 | 1010.9 |
| 20260501231804 | 65 | 0 | 0.0 | 0.0 | 0.00 | 0.00 | 0.00 | 75 | 1010.8 |
| 20260501230926 | 65 | 110 | 0.0 | 1.0 | 0.00 | 0.00 | 0.00 | 74 | 1010.7 |
| 20260501230019 | 66 | 115 | 0.0 | 2.0 | 0.00 | 0.00 | 0.00 | 72 | 1011.0 |
| 20260501225405 | 66 | 121 | 0.0 | 1.0 | 0.00 | 0.00 | 0.00 | 71 | 1011.1 |
| 20260501224505 | 66 | 159 | 0.0 | 2.0 | 0.00 | 0.00 | 0.00 | 71 | 1011.2 |
| 20260501223605 | 66 | 154 | 1.0 | 3.0 | 0.00 | 0.00 | 0.00 | 69 | 1011.3 |
| 20260501222704 | 67 | 122 | 1.0 | 3.0 | 0.00 | 0.00 | 0.00 | 70 | 1011.1 |
| 20260501221805 | 67 | 128 | 1.0 | 3.0 | 0.00 | 0.00 | 0.00 | 68 | 1011.2 |